Lid_Strength_Index
5 7 8 7 6 6 7 8 8 7 6 7 7 7 6 4 4 4 4 3 3 3 2 1 1 0 0 -0 -0 -1 -0 -0 0 1 1 1 1 1 0 -0 -1 -1 -1 -1
6 8 6 5 6 7 7 8 8 7 6 6 7 7 6 5 5 4 4 4 3 3 2 2 1 1 0 -0 -1 -1 -0 -1 -0 0 1 1 1 0 0 -0 -0 -1 -0 -1
8 6 6 6 7 8 8 8 8 8 7 6 7 8 7 5 4 4 3 3 3 3 3 2 2 1 0 0 -0 -0 -1 -1 -1 -1 0 0 0 0 1 0 0 -0 -0 -0
6 5 6 7 8 7 9 6 7 8 9 11 7 12 8 6 6 5 4 4 3 3 2 2 2 1 1 1 -0 -1 -1 -1 -1 -1 0 1 2 2 1 1 0 0 -0 -0
8 7 8 8 8 6 8 6 7 8 9 9 9 10 9 6 7 6 5 5 4 3 3 3 2 1 1 0 0 -0 -1 -1 -1 -1 -0 1 1 1 1 1 0 -0 -0 -0
7 5 7 7 6 7 6 7 7 7 8 12 9 10 10 8 7 6 5 4 4 4 4 3 2 2 1 1 0 0 -0 -0 -0 -0 -0 0 1 1 2 1 1 1 1 0
8 7 6 5 7 6 7 8 12 13 13 13 9 10 9 7 6 5 5 5 4 4 4 4 3 3 2 1 1 1 0 0 -0 -0 0 0 0 1 1 1 1 1 1 1
11 12 8 6 7 8 8 8 12 17 16 13 9 13 10 6 5 5 5 5 4 4 4 4 3 3 3 2 1 1 1 1 0 0 0 -0 -0 1 1 1 1 1 1 1
11 11 7 7 7 8 9 11 8 13 12 14 11 9 7 6 6 5 5 5 5 4 4 3 3 3 3 2 1 1 1 1 0 0 0 0 0 1 1 0 0 0 0 0
9 13 8 7 6 6 8 7 13 12 20 19 13 12 11 9 8 6 6 5 4 4 4 3 3 2 2 2 1 1 1 1 0 0 0 0 0 0 0 1 1 1 1 0
8 10 11 8 9 10 10 11 10 11 12 18 18 14 7 8 7 7 6 5 5 5 4 3 3 2 2 2 2 1 1 1 1 0 0 0 0 0 0 1 1 1 0 0
8 11 14 11 7 6 8 10 10 17 16 13 15 16 6 7 6 6 5 5 4 4 4 3 3 3 3 2 2 1 1 1 1 0 0 0 0 0 0 1 0 0 1 0
8 12 15 12 9 8 10 9 9 10 12 15 18 14 7 6 6 6 6 5 5 5 4 3 3 3 3 2 2 1 1 1 1 0 1 0 0 1 1 1 0 0 1 0
7 10 13 16 12 12 13 11 10 11 15 14 13 12 9 8 8 6 5 5 5 4 3 3 3 3 2 2 1 1 1 1 1 1 1 1 1 0 1 0 1 1 0 1
8 13 11 10 10 9 10 10 9 11 11 14 12 11 9 7 6 6 5 5 5 4 4 3 3 2 2 2 1 1 1 1 1 1 1 1 0 0 0 0 1 1 2 1
8 13 10 12 9 9 11 9 9 9 9 10 9 10 6 5 6 6 5 5 5 4 4 3 3 2 2 2 2 1 1 1 1 1 1 1 1 1 1 0 1 1 1 1
10 13 13 15 10 10 13 10 9 9 8 8 11 8 6 6 6 5 5 5 4 4 3 3 3 2 2 2 1 2 1 1 1 1 1 1 1 1 1 1 1 2 2 1
11 11 13 14 12 18 10 7 7 8 7 7 7 6 6 6 5 4 4 4 4 4 3 3 3 3 2 3 3 2 2 2 3 3 2 1 1 1 1 1 1 1 1 2
7 10 15 16 15 12 10 8 8 10 9 6 7 7 6 5 5 5 3 3 3 3 3 3 3 4 3 3 3 4 3 4 4 4 3 3 2 2 1 1 1 1 1 1
8 9 14 14 17 17 12 8 6 6 12 7 7 7 6 6 9 7 4 4 4 4 4 4 4 4 4 4 4 5 4 5 5 5 4 3 3 3 2 1 1 1 1 1
13 13 15 15 16 12 8 7 6 13 13 7 6 5 6 7 6 5 4 5 5 5 5 5 5 5 4 4 3 5 5 6 5 5 4 4 3 4 3 2 1 1 1 1
13 14 14 13 16 17 7 7 11 8 5 5 5 5 5 5 5 5 6 6 6 6 6 5 6 5 5 4 5 5 7 5 4 5 4 4 4 4 4 3 3 2 2 2
12 10 14 12 11 7 6 6 5 4 5 5 5 4 5 6 6 6 7 7 8 7 8 8 8 8 7 6 6 7 6 5 6 6 6 5 5 4 4 4 4 4 3 2
8 6 10 9 7 7 5 4 4 4 5 4 3 4 5 6 7 7 7 8 8 9 9 9 9 10 9 8 7 7 7 7 7 7 6 6 6 6 5 5 5 5 5 4
8 7 8 8 6 6 5 4 4 4 3 3 4 5 6 7 7 8 8 9 9 10 10 11 12 12 11 10 9 9 8 8 9 8 7 8 8 8 7 6 5 5 5 4
7 7 9 10 6 7 6 4 3 4 4 4 5 6 6 7 8 8 9 9 10 11 12 13 13 13 13 12 12 11 10 11 11 11 11 10 10 10 10 9 8 9 9 8